Location: �clusier
(49.9361°N, 2.7869°E)
Time: 03:28:08
(UTC+00:00)

Cosmos 1943 Rocket - Pass Details

Date: 27 October 2021
Orbit: 811 x 844 km, 71.0° (Epoch: 07 December)

Event Time Altitude Azimuth Distance (km) Brightness Sun altitude
Rises 21:10:59 0° 329° (NNW) 3,415 6.1 -43.2°
Reaches altitude 10° 21:13:27 10° 326° (NW) 2,474 5.2 -43.5°
Enters shadow 21:14:29 16° 324° (NW) 2,096 4.7 -43.6°
